Location: Larkspur
(54.4391°N, 113.7691°W)
Time: 00:31:35
(UTC+00:00)

CZ-4C DEB - Pass Details

Date: 22 May 2024
Orbit: 605 x 614 km, 97.8° (Epoch: 21 June)

Event Time Altitude Azimuth Distance (km) Brightness Sun altitude
Exits shadow 06:14:21 12° 204° (SSW) 1,849 ? -13.2°
Maximum altitude 06:17:50 32° 265° (W) 1,079 ? -13.4°
Drops below altitude 10° 06:21:44 10° 329° (NNW) 1,992 ? -13.6°
Sets 06:24:08 0° 339° (NNW) 2,902 ? -13.7°
